CW9703 Weather Reports


Display with metric or nautical units.
time (UTC)temp
F
wind
direction
speed
MPH
gust
MPH
rain 1hr
in
rain 24hr
in
rain mn
in
humidity
%
barometer
mb
20180919164139 67 94 4.0 10.0 0.00 0.00 0.00 81 1018.9
20180919161938 68 80 0.0 2.0 0.00 0.00 0.00 78 1018.7
20180919154638 68 68 0.0 2.0 0.00 0.00 0.00 76 1018.8
20180919152437 69 41 1.0 3.0 0.00 0.00 0.00 75 1018.7
20180919150237 68 38 0.0 3.0 0.00 0.00 0.00 75 1018.6
20180919141837 64 325 0.0 2.0 0.00 0.00 0.00 82 1018.2
20180919135636 63 327 1.0 3.0 0.00 0.00 0.00 80 1018.1
20180919133436 64 355 1.0 3.0 0.00 0.00 0.00 80 1018.0
20180919120635 57 325 3.0 4.0 0.00 0.00 0.00 92 1018.0
20180919114435 57 5 2.0 3.0 0.00 0.00 0.00 93 1017.5
20180919103834 58 9 0.0 2.0 0.00 0.00 0.00 92 1017.3
20180919100533 58 24 0.0 2.0 0.00 0.00 0.00 92 1016.9
20180919094333 59 36 0.0 1.0 0.00 0.00 0.00 90 1016.8
20180919085932 60 5 0.0 0.0 0.00 0.00 0.00 91 1016.3
20180919083732 60 294 0.0 1.0 0.00 0.00 0.00 91 1016.1
20180919074232 61 5 1.0 2.0 0.00 0.00 0.00 90 1015.7
20180919072031 61 5 0.0 2.0 0.00 0.00 0.00 90 1015.7
20180919063640 61 355 0.0 0.0 0.00 0.00 0.00 89 1015.8
20180919062530 61 355 0.0 0.0 0.00 0.00 0.00 89 1015.8
20180919055230 61 355 0.0 0.0 0.00 0.00 0.00 90 1015.6
20180919053040 61 355 0.0 0.0 0.00 0.00 0.00 90 1015.5
20180919051939 61 355 0.0 0.0 0.00 0.00 0.00 90 1015.4
20180919045729 61 26 0.0 0.0 0.00 0.00 0.00 90 1015.4
20180919043529 61 30 0.0 0.0 0.00 0.00 0.00 91 1015.2
20180919041338 61 31 0.0 0.0 0.00 0.00 0.00 91 1015.1
20180919040229 61 33 0.0 0.0 0.00 0.00 0.00 92 1015.1
20180919034028 61 34 0.0 0.0 0.00 0.00 0.00 92 1014.8
20180919031828 61 42 0.0 0.0 0.00 0.00 0.00 91 1014.6
20180919023427 61 42 0.0 0.0 0.00 0.00 0.00 91 1014.5
20180919021237 61 42 0.0 0.0 0.00 0.00 0.00 91 1014.3
20180919020131 61 44 0.0 0.0 0.00 0.00 0.00 91 1014.2
20180919013926 61 28 0.0 0.0 0.00 0.00 0.00 91 1014.4
20180919005526 61 32 0.0 0.0 0.00 0.00 0.00 90 1013.9
20180918234935 62 42 0.0 0.0 0.00 0.00 0.00 89 1013.9
20180918232725 63 81 0.0 3.0 0.00 0.00 0.00 88 1013.3
20180918230534 64 52 0.0 1.0 0.00 0.00 0.00 87 1013.5
20180918225424 64 48 0.0 0.0 0.00 0.00 0.00 87 1013.6
20180918223224 64 44 2.0 3.0 0.00 0.00 0.00 87 1013.4
20180918221034 65 54 0.0 3.0 0.00 0.00 0.00 86 1013.2
20180918203122 66 105 6.0 8.0 0.00 0.00 0.00 86 1012.7
20180918200922 66 99 6.0 8.0 0.00 0.00 0.00 87 1012.7
20180918193632 66 107 6.0 9.0 0.00 0.00 0.00 88 1012.7
20180918185231 67 82 4.0 10.0 0.00 0.00 0.00 86 1012.6
20180918181921 66 101 7.0 10.0 0.00 0.00 0.00 89 1013.1
20180918175730 67 108 7.0 10.0 0.00 0.00 0.00 87 1013.2
20180918174620 67 125 7.0 9.0 0.00 0.00 0.00 87 1013.3
20180918170230 67 90 6.0 7.0 0.00 0.00 0.00 85 1013.2